Location: *
(38.8181°S, 103.0319°E)
Time: 11:53:32
(UTC+00:00)

Daily predictions for brighter satellites

Satellite Brightness Start Highest point End
(mag) Time Altitude Azimuth Time Altitude Azimuth Time Altitude Azimuth
ATLAS 3B R/B 3.9 12:47:08 10° SSW 12:53:32 33° SE 13:00:10 10° ENE
Cosmos 1833 Rocket 3.4 12:50:26 10° NNE 12:55:22 32° ENE 13:00:21 10° SE
CZ-2D R/B 4.2 12:52:41 10° SE 12:56:08 30° E 12:59:31 10° NNE
Cosmos 2082 Rocket 2.6 12:53:59 10° N 12:59:20 43° ENE 13:04:45 10° SE
Cosmos 1605 Rocket 4.0 12:56:52 10° N 13:03:00 89° WSW 13:09:11 10° S
CZ-4C R/B 3.2 12:58:17 10° SSW 13:03:37 33° SE 13:08:24 10° ENE
ATLAS 5 CENTAUR R/B 3.4 12:59:44 10° SSW 13:04:10 26° SE 13:08:15 10° E
Cosmos 2369 3.9 13:00:26 10° SSW 13:06:10 62° ESE 13:11:51 10° NE
Cosmos 1441 Rocket 3.6 13:03:12 10° SSW 13:07:03 66° W 13:10:53 10° N
Cosmos 1656 4.4 13:04:11 10° S 13:09:21 39° ESE 13:14:12 11° NE
Cosmos 1726 Rocket 4.4 13:06:26 10° NNW 13:10:50 56° W 13:15:16 10° S
USA 186 2.3 13:11:25 10° SSE 13:14:37 41° E 13:17:41 10° N
Meteor 1-15 Rocket 4.5 13:09:09 10° NNW 13:14:49 75° W 13:20:30 10° S
deb Chang Zheng 4 3.7 13:11:09 10° NNE 13:15:33 65° ESE 13:19:58 10° S
Cosmos 2061 Rocket 4.5 13:10:23 10° NNE 13:16:10 42° E 13:22:02 10° SSE
OAO 3 Rocket 4.1 13:16:06 10° NW 13:20:00 26° NNE 13:23:49 10° ENE
CZ-4B R/B 4.2 13:17:14 12° NE 13:21:18 36° ESE 13:25:51 10° S
Cosmos 2098 Rocket 3.3 13:22:24 16° NE 13:24:01 25° E 13:26:36 10° SSE
FENGYUN 3A 3.7 13:19:22 10° SSE 13:24:54 88° ENE 13:30:21 10° NNW
Cosmos 1190 Rocket 4.3 13:23:49 10° N 13:28:44 45° ENE 13:33:44 10° SSE
Genesis I 3.6 13:25:30 10° N 13:29:08 40° ENE 13:32:50 10° SE
Spot 2 Rocket 3.9 13:26:14 10° S 13:31:22 69° WSW 13:36:28 10° NNW
Cosmos 2173 Rocket 4.1 13:25:52 10° N 13:31:55 59° E 13:37:58 10° SSE
Spot 1 4.3 13:29:12 10° S 13:33:26 71° WSW 13:37:48 10° NNW
ALOS 2.8 13:30:14 10° S 13:34:56 62° WSW 13:39:34 10° NNW
Cosmos 1346 3.2 13:32:44 10° S 13:35:41 52° E 13:37:21 22° NNE
Lacrosse 5 rocket 2.5 13:32:40 10° SSW 13:36:07 29° SE 13:38:46 14° E
Cosmos 2016 Rocket 4.3 13:34:47 10° NNE 13:40:54 51° E 13:47:07 10° SSE
SL-19 R/B 4.5 13:39:04 10° SE 13:41:40 29° E 13:42:24 26° NE
COSMOS 2455 4.4 13:37:13 10° S 13:41:59 23° SE 13:46:22 11° E
Envisat 3.7 13:39:16 10° SSE 13:43:59 35° E 13:47:07 18° NNE
Cosmos 1707 2.8 13:40:16 10° S 13:44:13 65° E 13:46:49 20° NNE
Cosmos 1992 Rocket 4.0 13:39:55 10° SSW 13:45:15 89° E 13:49:22 17° NNE
CZ-4B DEB 3.4 13:44:40 10° S 13:47:52 58° WSW 13:51:01 10° NNW
YAOGAN 6 4.4 13:46:18 10° SE 13:48:22 15° E 13:48:22 15° E
GPS 2-04 Rocket1 3.3 13:47:04 10° NW 13:50:11 27° NNE 13:50:31 26° NNE
Resurs 01 Rocket 3.5 13:48:48 10° S 13:52:48 33° WSW 13:56:46 10° NW
ATLAS 2AS CENTAUR R/B 3.0 13:47:29 10° NW 13:53:57 62° SW 14:00:02 10° SSE
SPOT 5 4.5 13:50:22 10° SE 13:53:57 19° E 13:54:53 18° ENE
Cosmos 2278 4.5 13:49:11 10° SW 13:54:42 48° WNW 13:59:48 12° N
Cosmos 1459 Rocket 4.1 13:49:20 10° N 13:55:40 86° W 14:02:09 10° S
Centaur AC-125 4.2 13:54:26 10° NNW 13:54:57 13° N 13:54:57 13° N
ASTRO E2 4.3 13:53:43 10° WNW 13:56:39 19° NNW 13:57:21 18° N
Cosmos 2084 Rocket 4.3 13:56:20 10° SSW 14:01:06 47° SE 14:03:35 24° ENE
Cosmos 1378 3.5 13:57:38 10° S 14:01:22 50° E 14:02:47 32° NE
Cosmos 2322 Rocket 4.0 13:57:22 10° S 14:01:23 19° SE 14:04:39 12° E
Cosmos 1980 Rocket 2.7 13:57:30 10° SSW 14:03:05 49° ESE 14:06:13 25° NE
Tsikada Rocket 4.5 13:58:11 10° S 14:04:14 45° ESE 14:07:32 25° NE
CZ-4 R/B 3.9 14:02:08 22° NNE 14:05:20 87° ESE 14:10:23 10° SSW
Cosmos 1932 4.5 14:06:01 10° SSW 14:12:11 72° ESE 14:15:37 28° NE
Cosmos 1725 Rocket 4.1 14:07:49 20° NNE 14:12:14 61° E 14:18:32 10° SSE
ERS-1 Rocket 3.0 14:11:01 10° SSE 14:16:05 58° ENE 14:18:42 27° N
Cosmos 407 Rocket 3.8 14:16:04 10° NNW 14:21:20 71° WSW 14:26:44 10° SSE
H-2A R/B 4.0 14:22:14 10° ESE 14:25:11 15° E 14:25:11 15° E
Cosmos 676 Rocket 4.0 14:25:06 13° NNW 14:29:45 83° WSW 14:35:05 10° SSE
Cosmos 1953 2.6 14:30:15 44° ENE 14:30:35 45° E 14:34:29 10° SSE
SL-16 R/B 3.4 14:25:43 10° S 14:30:44 30° ESE 14:33:05 23° E
Atlas Centaur 2 2.7 14:26:13 10° WNW 14:31:04 36° N 14:32:01 34° NNE
Cosmos 1758 3.6 14:32:05 47° ENE 14:32:38 51° E 14:36:42 10° SSE
Cosmos 1864 Rocket 4.5 14:28:47 22° N 14:33:04 88° E 14:39:28 10° S
Meteor 2-17 Rocket 4.4 14:30:30 23° N 14:34:30 87° E 14:40:43 10° S
Meteor 1-22 Rocket 4.4 14:30:16 15° NNW 14:34:42 64° W 14:40:02 10° S
Cosmos 1697 Rocket 3.2 14:29:49 10° SSW 14:35:20 54° WNW 14:38:10 27° N
Cosmos 1954 Rocket 3.9 14:32:29 22° NNW 14:35:58 88° ENE 14:41:19 10° SSE
USA 238 DEB 3.8 14:28:54 10° SSW 14:36:05 79° ESE 14:39:34 33° NE
USA 238 3.8 14:29:00 10° SSW 14:36:10 78° SE 14:39:39 33° NE
Meteor 1-24 Rocket 4.0 14:32:16 10° SSW 14:37:45 61° W 14:40:38 27° NNW
Cosmos 1833 Rocket 4.4 14:34:09 10° WNW 14:39:13 33° WSW 14:44:20 10° S
Cosmos 1939 Rocket 3.7 14:37:01 10° S 14:40:52 49° WSW 14:43:13 21° NW
Cosmos 2082 Rocket 4.3 14:38:43 10° WNW 14:43:34 27° WSW 14:48:27 10° S
Cosmos 614 Rocket 4.1 14:43:21 45° NE 14:44:18 52° ENE 14:49:17 10° SSE
ATLAS 3B R/B 3.2 14:37:30 10° SW 14:44:37 58° WNW 14:48:26 30° N
Cosmos 405 4.0 14:49:09 37° ESE 14:49:09 37° ESE 14:51:56 10° SSE
ATLAS 5 CENTAUR R/B 2.5 14:44:10 10° SW 14:49:03 44° WNW 14:50:24 35° NNW
Okean 3 Rocket 4.4 14:47:23 10° SSW 14:51:49 47° W 14:53:31 31° NW
Cosmos-2242 3.1 14:51:28 58° ENE 14:51:52 61° E 14:56:17 10° SSE
CZ-4C R/B 3.1 14:46:58 10° SW 14:52:02 35° WNW 14:53:53 27° NNW
Cosmos 1766 Rocket 3.4 14:50:36 10° S 14:55:01 79° E 14:55:33 67° NE
Cosmos 1850 Rocket 4.0 14:54:07 49° NNE 14:55:22 63° ENE 15:00:43 10° SSE
SPOT 1/Viking Rocket 3.9 14:51:57 10° SSE 14:56:57 44° E 14:57:21 43° ENE
Cosmos 1741 Rocket 4.0 14:56:20 52° NNE 14:57:21 63° ENE 15:02:35 10° SSE
Cosmos 1076 Rocket 3.6 14:53:30 10° S 14:57:58 74° W 14:58:46 57° NNW
Cosmos 1140 Rocket 3.5 14:55:52 33° NNW 14:58:15 81° WSW 15:03:31 10° SSE
H-2A R/B 2.3 14:54:44 10° SSE 14:58:56 52° E 14:58:56 52° E
Abrixas rocket 3.2 14:57:18 10° SW 15:00:30 42° SSE 15:00:30 42° SSE
Cosmos 1674 3.4 14:58:11 10° S 15:01:35 43° ESE 15:01:35 43° ESE
Spot 2 4.1 15:01:51 62° NE 15:02:29 74° ESE 15:07:19 10° S
OAO 3 Rocket 3.9 14:58:31 10° WNW 15:01:42 38° NW 15:01:42 38° NW
MetOp-B 4.1 15:01:43 10° SSE 15:07:11 89° ENE 15:08:52 46° NNW
Cosmos 1607 4.2 15:01:19 10° SW 15:07:32 60° WNW 15:09:27 42° N
NOSS 3-2 (C) 4.1 15:02:00 10° SSW 15:08:24 48° SE 15:10:44 33° E
Cosmos 1437 Rocket 2.9 15:09:21 63° SE 15:09:21 63° SE 15:12:47 10° SSE
Cosmos 1470 3.3 15:13:47 51° SE 15:13:47 51° SE 15:17:01 10° SSE
Cosmos 1805 4.2 15:13:02 39° WNW 15:13:46 43° W 15:17:37 10° S
Lacrosse 5 rocket 2.7 15:12:00 10° WSW 15:14:29 25° WNW 15:14:29 25° WNW
ARGOS 3.1 15:11:08 10° SSE 15:16:37 75° ENE 15:17:35 59° NNE
Terra 3.0 15:17:02 10° SSE 15:20:32 30° ESE 15:20:32 30° ESE
YAOGAN 6 4.3 15:18:59 10° SSW 15:22:06 28° WSW 15:22:50 26° W
Cosmos 1733 3.8 15:27:25 53° SSE 15:27:25 53° SSE 15:30:29 10° S
Cosmos 1544 4.4 15:27:46 34° W 15:27:59 34° WSW 15:31:30 10° SSW
COSMOS 2455 3.0 15:22:24 10° SW 15:28:21 61° WNW 15:29:31 51° NNW
Cosmos 1570 Rocket 3.9 15:23:25 10° SSW 15:28:43 79° WNW 15:29:18 69° NNW
NOAA 11 4.3 15:23:57 10° S 15:29:29 73° WSW 15:31:02 48° NW
NOSS 3-4 (A) 3.9 15:25:01 21° NNW 15:30:44 87° WSW 15:38:27 10° SSE
NOSS 3-4 (C) 3.9 15:25:14 21° NNW 15:30:50 88° WSW 15:38:33 10° SSE
SPOT 5 3.7 15:27:14 10° S 15:32:11 51° WSW 15:34:08 33° NW
NOSS 3-2 (A) 3.3 15:26:00 10° SSW 15:32:34 85° ESE 15:33:49 59° NE
GEOS 3 Rocket 4.3 15:27:41 10° SSE 15:32:51 54° SW 15:36:51 16° WNW
Cosmos 1842 Rocket 3.6 15:39:22 75° S 15:39:22 75° S 15:43:32 10° S
Cosmos 1072 Rocket 4.4 15:41:20 58° NNW 15:42:39 85° W 15:48:53 10° S
Cosmos 1464 Rocket 3.9 15:42:16 60° N 15:43:31 89° E 15:49:47 10° S
SL-14 R/B 4.5 15:40:40 10° S 15:43:43 37° SE 15:43:43 37° SE
Cosmos 1743 Rocket 4.0 15:40:37 10° SSW 15:44:43 57° WSW 15:44:43 57° WSW
Cosmos 2322 Rocket 2.2 15:40:16 10° SSW 15:45:55 64° WNW 15:46:28 60° NW
Cosmos 1980 Rocket 3.8 15:42:22 10° SW 15:46:41 22° W 15:48:00 21° WNW
Cosmos 2360 Rocket 2.7 15:41:15 10° SSW 15:46:49 49° ESE 15:47:39 45° E
Cosmos 1833 4.1 15:47:16 69° ENE 15:47:19 69° ENE 15:52:56 10° SSE
SL-08 RB Rocket 4.1 15:43:32 10° S 15:48:04 56° WSW 15:48:28 54° W
Lacrosse 5 4.2 15:46:15 10° SSW 15:50:00 20° SSE 15:53:45 10° ESE
Cosmos 2208 Rocket 4.4 15:46:11 10° SSW 15:51:30 53° WNW 15:51:51 52° WNW
COSMOS 2428 4.1 15:50:18 10° S 15:55:12 28° ESE 15:56:47 24° E
CARTOSAT-1 4.0 15:52:40 10° SSE 15:56:14 58° SSE 15:56:14 58° SSE
Cosmos 1626 4.5 16:00:12 10° SSE 16:01:54 18° SE 16:01:54 18° SE
Cosmos 724 4.3 15:58:35 10° SSW 16:04:20 65° ESE 16:04:59 60° E
H-2A R/B 2.3 15:59:37 10° S 16:05:07 68° WSW 16:05:49 61° WNW
Cosmos 468 Rocket 4.0 16:01:31 10° SSW 16:06:49 76° ESE 16:06:49 76° ESE
Cosmos 1092 Rocket 4.4 16:02:16 10° S 16:08:17 47° ESE 16:08:57 46° E
Meteor 1-4 Rocket 4.2 16:11:52 33° SSE 16:11:52 33° SSE 16:14:10 10° SSE
Cosmos 489 Rocket 4.3 16:11:26 72° NE 16:11:50 75° ENE 16:18:05 10° SSE
Cosmos 1805 Rocket 4.5 16:08:36 10° S 16:12:02 43° SE 16:12:02 43° SE
IGS 5A 4.2 16:10:37 10° S 16:13:58 52° SSW 16:13:58 52° SSW
SL-16 R/B 3.0 16:09:39 10° SW 16:14:51 37° WNW 16:14:57 37° WNW
CZ-2C R/B 2.6 16:16:20 77° NW 16:16:33 78° WNW 16:22:16 10° SSW
Cosmos 1763 Rocket 4.1 16:11:48 10° S 16:16:50 46° ESE 16:16:55 46° ESE
SeaSat 1 2.5 16:17:38 78° S 16:17:38 78° S 16:22:21 10° SSW
CENTAUR R/B 3.3 16:11:57 10° SSW 16:17:44 40° SE 16:19:25 33° E
Cosmos 2219 3.5 16:19:50 55° E 16:19:50 55° E 16:24:55 10° SSE
Atlas Centaur 2 4.5 16:14:21 10° WNW 16:14:40 11° WNW 16:14:40 11° WNW
BREEZE-M DEB (TANK) 3.7 16:17:27 10° W 16:22:52 35° SSW 16:22:52 35° SSW
Iridium 4 Rocket 4.1 16:24:47 10° SSW 16:29:18 44° W 16:29:18 44° W
Cosmos 2034 Rocket 4.5 16:28:57 46° WNW 16:30:13 53° W 16:36:31 10° S
Sich 1 4.1 16:26:35 10° S 16:29:49 41° SE 16:29:49 41° SE
Cosmos 2297 Rocket 4.3 16:32:33 13° E 16:32:33 13° E 16:34:27 10° ESE
Cosmos 841 Rocket 3.9 16:27:24 10° S 16:32:23 53° ESE 16:32:23 53° ESE
Nadezhda 4 Rocket 3.9 16:27:15 10° S 16:33:34 78° W 16:34:03 73° NW
Cosmos 1814 Rocket 4.1 16:29:16 10° SSW 16:33:55 68° SW 16:33:55 68° SW
Cosmos 2227 Rocket 3.9 16:36:58 21° E 16:36:58 21° E 16:40:18 10° SE
H-2A R/B 3.9 16:38:36 33° SW 16:38:36 33° SW 16:40:57 10° SSW
Meteor 2-1 Rocket 4.4 16:36:49 64° WNW 16:37:16 67° W 16:43:15 10° S
CZ-3 Stage 3 4.0 15:51:53 10° W 16:39:07 54° NNW 16:41:39 47° N
Cosmos 2221 3.6 16:40:26 42° SW 16:40:26 42° SW 16:43:47 10° S
Cosmos 1486 Rocket 4.1 16:40:01 69° WSW 16:40:01 69° WSW 16:45:18 10° SSE
Cosmos 2219 Rocket 3.3 16:36:26 10° S 16:41:38 35° ESE 16:42:53 31° E
RESURS DK-1 4.1 16:43:18 27° WSW 16:43:18 27° WSW 16:46:49 10° S
Cosmos 2026 Rocket 4.3 16:38:00 10° S 16:44:03 52° E 16:44:43 50° E
Cosmos 1271 Rocket 4.4 16:45:47 32° S 16:45:47 32° S 16:47:59 10° S
Cosmos 2279 Rocket 4.4 16:49:15 47° E 16:49:36 48° E 16:55:35 10° SSE
Cosmos 1634 Rocket 3.8 16:52:07 80° N 16:52:31 88° E 16:58:48 10° S
Cosmos 1354 Rocket 4.1 16:56:12 73° SE 16:56:12 73° SE 17:01:04 10° SSE
Cosmos 540 Rocket 4.5 16:52:49 10° S 16:57:37 37° ESE 16:58:00 36° ESE
Terra 3.4 16:54:58 10° SSW 16:58:55 26° WSW 16:59:26 25° WSW
Cosmos 1340 Rocket 4.4 16:59:23 10° SSW 17:01:49 33° SW 17:01:49 33° SW
Cosmos 2333 Rocket 3.0 17:01:55 10° S 17:07:30 45° ESE 17:08:39 40° E
Helios 1A Rocket 4.3 17:09:06 35° SW 17:09:06 35° SW 17:11:42 10° SSW
USA 215 4.1 17:01:27 10° ENE 17:07:40 46° SSE 17:13:55 10° SW
Cosmos 1633 Rocket 4.1 17:06:38 10° SSW 17:09:45 42° SW 17:09:45 42° SW
Cosmos 967 Rocket 4.3 17:13:34 79° NNE 17:13:50 81° ENE 17:20:16 10° SSE
Cosmos 1933 Rocket 4.4 17:12:06 10° S 17:15:35 50° SSE 17:15:35 50° SSE
Cosmos 2195 Rocket 4.4 17:11:47 10° S 17:18:12 74° W 17:18:39 71° NW
ALOS 2 3.5 17:14:14 10° SSE 17:17:34 46° SE 17:17:34 46° SE
Cosmos 2333 4.2 17:14:40 10° SSW 17:20:14 72° W 17:20:14 72° W
Cosmos 2180 Rocket 4.4 17:20:47 69° ENE 17:21:12 72° E 17:27:24 10° SSE
Cosmos 2228 Rocket 4.0 17:24:22 44° SW 17:24:22 44° SW 17:27:47 10° S
SL-16 R/B 4.2 17:20:52 10° S 17:25:19 22° SE 17:29:22 11° ENE
Cosmos 1655 Rocket 3.8 17:21:13 10° S 17:27:32 82° W 17:27:59 76° NNW
Cosmos 1726 3.9 17:31:53 30° SE 17:31:53 30° SE 17:34:05 10° SSE
Cosmos 2360 Rocket 3.9 17:26:08 10° SW 17:29:24 21° W 17:29:24 21° W
Cosmos 371 Rocket 3.6 17:26:40 10° SSW 17:30:50 62° SSW 17:30:50 62° SSW
Cosmos 1470 Rocket 4.4 17:28:30 10° SSW 17:31:47 48° SSW 17:31:47 48° SSW
Lacrosse 5 2.1 17:28:30 10° SW 17:33:02 69° SSW 17:33:02 69° SSW
Meteor 2-2 Rocket 4.1 17:34:48 77° W 17:34:53 77° W 17:40:36 10° S
COSMOS 2428 3.5 17:34:12 10° SW 17:38:47 39° W 17:38:47 39° W
NPP 4.0 17:42:10 53° ENE 17:42:52 57° ESE 17:48:13 10° S
Cosmos 1428 Rocket 4.4 17:39:54 10° S 17:46:17 76° W 17:46:54 70° NW
NOSS 0 Rocket 3.8 17:40:57 10° SSW 17:47:13 85° WNW 17:47:47 75° N
CZ-2C R/B 3.3 17:42:29 10° SSE 17:48:04 60° E 17:48:14 60° ENE
CBERS-1 4.3 17:51:20 55° E 17:51:51 58° ESE 17:56:56 10° S
ARIANE 5 R/B 4.4 17:49:46 17° ENE 17:52:19 25° ESE 17:56:32 10° SSE
Cosmos 2237 Rocket 2.1 17:47:54 10° SSW 17:53:41 82° ESE 17:54:10 74° NE
Resurs 1-4 Rocket 4.0 17:53:07 16° ENE 17:56:04 25° ESE 18:00:22 10° SSE
Cosmos 968 Rocket 3.4 17:59:42 78° E 17:59:42 78° E 18:04:53 10° SSE
Cosmos 1455 4.0 18:02:20 25° ESE 18:02:20 25° ESE 18:04:56 10° SSE
Cosmos 389 Rocket 4.4 18:06:58 27° SW 18:06:58 27° SW 18:09:08 10° S
CENTAUR R/B 3.5 18:02:57 10° SW 18:06:34 27° W 18:06:34 27° W
Aureole 1 Rocket 4.2 18:02:40 10° S 18:08:21 46° ESE 18:09:31 38° ENE
Cosmos 1300 4.1 18:11:31 33° SW 18:11:31 33° SW 18:14:06 10° S
Meteor 2-3 Rocket 3.7 18:06:21 10° S 18:12:13 79° E 18:13:09 63° NNE
Cosmos 2297 Rocket 2.1 18:14:21 66° WNW 18:14:57 73° WSW 18:20:40 10° SSE
Cosmos 2082 3.9 18:14:39 55° W 18:15:23 59° WSW 18:21:02 10° SSE
Cosmos 1151 Rocket 4.4 18:17:10 29° WSW 18:17:10 29° WSW 18:20:20 10° SSW
Cosmos 304 Rocket 3.7 18:12:28 10° SSW 18:17:21 81° ESE 18:17:24 81° E
Cosmos 2227 Rocket 2.7 18:18:47 45° W 18:19:41 49° WSW 18:25:15 10° SSE
Meteor 1-27 4.2 18:20:26 66° NW 18:21:09 75° W 18:27:03 10° S
CZ-2D R/B 3.1 18:20:39 26° ENE 18:23:01 42° ESE 18:27:58 10° S
CZ-4B R/B 3.5 18:22:01 10° S 18:23:33 22° SSW 18:23:33 22° SSW
Cosmos 2219 Rocket 3.3 18:20:30 10° SW 18:24:35 30° W 18:24:35 30° W
ERBS 3.9 18:26:26 35° SSW 18:26:26 35° SSW 18:29:10 10° SSE
Landsat 5 4.0 18:22:31 10° S 18:26:36 52° WSW 18:26:36 52° WSW
Spot 4 Rocket 4.1 18:27:33 54° NE 18:28:40 72° ESE 18:33:53 10° S
Cosmos 1980 4.1 18:23:17 10° SW 18:28:22 45° W 18:28:22 45° W
AQUA 4.1 18:38:09 53° W 18:38:09 53° W 18:42:38 10° SSW
ATLAS CENTAUR R/B 1.6 18:41:11 57° S 18:41:11 57° S 18:44:32 10° SSE
IRS-1C 4.1 18:41:04 58° NW 18:41:31 60° W 18:46:52 10° SSW
Cosmos 2266 Rocket 4.2 18:37:57 10° SSW 18:44:01 50° W 18:45:06 45° WNW
SL-6 R/B(2) 2.9 18:47:17 71° SW 18:47:17 71° SW 18:49:38 10° SSE
Cosmos 773 Rocket 3.9 18:42:40 10° SSW 18:48:02 88° ESE 18:49:29 49° NNE
USA 215 3.3 18:48:37 41° N 18:50:33 53° NW 18:57:00 10° SW
Cosmos 2333 Rocket 3.6 18:46:49 10° SW 18:50:38 24° W 18:50:38 24° W
OTV 4 3.3 18:55:30 12° E 18:55:30 12° E 18:55:50 10° E
ARGOS Delta rocket 4.4 18:57:49 39° W 18:57:49 39° W 19:02:03 10° SSW
Cosmos 1408 3.8 18:57:49 10° S 19:01:20 39° E 19:02:20 31° ENE
Cosmos 1538 Rocket 4.4 18:58:21 10° SSW 19:03:18 41° WNW 19:03:25 41° WNW
Cosmos 44 Rocket 3.3 18:59:16 10° SSW 19:04:20 88° WNW 19:07:00 29° NNE
Cosmos 1933 4.3 19:03:19 34° NE 19:04:23 42° E 19:08:16 10° SSE
Cosmos 1862 Rocket 3.7 19:04:35 53° NNE 19:05:35 75° E 19:10:07 10° S
Cosmos 292 Rocket 4.3 19:01:58 10° S 19:06:50 59° ESE 19:10:16 19° NE
PSLV R/B 3.8 19:03:10 10° SSE 19:07:22 89° ENE 19:07:57 65° N
ADEOS 3.8 19:06:48 45° NW 19:07:32 48° W 19:12:39 10° SSW
Aureole 2 Rocket 4.1 19:05:49 10° SW 19:07:37 24° SW 19:07:37 24° SW
SL-16 R/B 2.3 19:04:12 10° SSW 19:09:46 54° WNW 19:11:11 43° NNW
Cosmos 923 Rocket 3.9 19:04:50 10° SSW 19:10:15 83° WNW 19:12:43 34° NNE
USA 229 DEB 4.3 19:04:05 10° SSW 19:11:05 58° SE 19:17:54 10° NE
USA 229 4.3 19:04:10 10° SSW 19:11:11 58° SE 19:18:00 10° NE
Cosmos 1825 2.7 19:08:36 10° S 19:12:27 57° E 19:13:39 38° NE
ERS-2 3.9 19:10:18 13° NE 19:13:02 31° ESE 19:16:24 10° S
Cosmos 1356 3.4 19:10:04 10° S 19:13:41 81° E 19:13:56 74° NE
Cosmos 1892 4.2 19:11:05 10° SSW 19:13:39 25° WSW 19:13:39 25° WSW
Cosmos 1745 Rocket 4.2 19:08:58 10° S 19:15:17 71° E 19:19:48 19° NNE
ISS -1.1 19:15:58 17° ENE 19:15:58 17° ENE 19:17:53 10° E
Cosmos 2242 Rocket 4.4 19:24:54 32° W 19:25:29 33° WSW 19:29:34 10° SSW
CZ-2D R/B 3.5 19:24:09 29° NNE 19:26:11 75° ESE 19:30:18 10° S
Okean O Rocket 3.0 19:25:18 10° NE 19:29:27 39° ESE 19:33:37 10° S
Cosmos 2084 4.3 19:25:04 10° SSW 19:29:49 56° SE 19:34:15 10° NE
S3M 4.1 19:27:24 32° NNW 19:30:36 70° W 19:37:03 10° S
ARIANE 5 R/B 3.1 19:30:06 34° NW 19:31:12 38° W 19:36:05 10° SSW
Cosmos 1733 Rocket 3.3 19:28:30 10° SSW 19:32:52 51° W 19:33:57 41° NW
IRS-1D 4.3 19:33:46 32° NW 19:35:01 37° W 19:40:00 10° SSW
Resurs 1-4 Rocket 2.6 19:34:13 33° NW 19:35:39 40° W 19:40:41 10° SSW
Cosmos 2237 Rocket 4.2 19:34:49 10° WSW 19:35:58 12° W 19:35:58 12° W
Cosmos 1680 Rocket 3.5 19:31:41 10° SSW 19:36:59 62° WNW 19:40:04 25° N
Cosmos 1455 4.1 19:37:21 17° WSW 19:37:24 17° WSW 19:40:01 10° SSW
Cosmos 2150 Rocket 4.3 19:39:05 24° N 19:42:12 62° ENE 19:47:22 10° SSE
Meteor 2-10 Rocket 4.4 19:39:52 12° NNE 19:44:17 44° E 19:49:07 10° SSE
Cosmos 1400 Rocket 3.1 19:44:19 10° S 19:48:29 72° E 19:52:03 14° NNE
Cosmos 1862 3.5 19:45:38 10° SSW 19:49:42 53° W 19:51:18 32° NNW
IRS-1C Rocket 4.3 19:45:35 10° NNE 19:50:51 73° ESE 19:56:13 10° S
Meteor 1-26 Rocket 4.4 19:47:00 17° N 19:51:32 75° E 19:57:20 10° SSE
ADEOS Rocket 3.6 19:44:31 10° NNE 19:52:09 87° WNW 20:00:04 10° SSW
Okean 2 Rocket 4.1 19:47:54 10° S 19:52:16 46° E 19:56:32 10° NNE
Cosmos 2298 Rocket 4.0 19:51:55 25° NNW 19:55:08 87° WSW 20:00:32 10° SSE
Cosmos 44 3.6 19:51:59 10° SW 19:56:56 52° WNW 20:02:04 10° N
Cosmos 2112 Rocket 4.3 19:52:11 10° SSW 19:57:20 47° WNW 20:00:54 19° NNW
Cosmos 1818 4.5 19:54:24 21° WNW 19:57:26 37° SW 20:02:27 10° SSE
ADEOS II 3.2 19:54:26 10° NE 19:59:27 45° ESE 20:04:31 10° S
Cosmos 2297 Rocket 4.5 19:58:12 10° WSW 20:00:02 11° SW 20:01:52 10° SSW
Cosmos 1937 Rocket 3.6 19:57:06 20° N 20:00:44 77° ENE 20:06:02 10° SSE
Cosmos 1898 Rocket 3.6 19:58:28 23° NNW 20:01:49 75° WSW 20:07:14 10° SSE
Cosmos 1782 Rocket 3.7 19:58:18 10° S 20:02:52 83° E 20:07:23 10° N
CZ-2D R/B 3.3 20:01:59 21° WNW 20:03:14 22° W 20:07:18 10° SW
GP-B 3.5 19:59:22 10° S 20:03:52 63° E 20:08:17 10° N
PSLV R/B 3.8 20:01:10 14° N 20:04:39 79° W 20:08:50 10° SSW
Cosmos 2221 Rocket 3.6 20:01:59 21° NNW 20:05:00 78° W 20:09:38 10° S
UNKNOWN OBJECT B 3.9 20:05:55 24° WNW 20:06:48 26° W 20:10:15 10° SW
Cosmos 1603 4.0 20:02:13 10° SSW 20:07:47 49° WNW 20:13:17 10° N
Cosmos 1908 Rocket 3.9 20:04:08 10° SSW 20:08:27 48° W 20:11:22 19° NNW
SL-08 R/B 3.3 20:03:43 10° S 20:08:35 72° WSW 20:12:01 19° NNW
Cosmos 1242 Rocket 2.8 20:10:24 26° NW 20:12:07 49° WSW 20:15:38 10° S
DEBRIS 4.2 20:04:50 18° NW 20:13:12 63° NNE 20:16:49 10° ESE
Cosmos 2263 Rocket 2.2 20:17:57 15° NNW 20:22:45 89° WSW 20:28:27 10° SSE
Cosmos 1315 Rocket 2.7 20:19:13 10° SSW 20:23:14 80° W 20:27:11 10° N
PAYLOAD B 4.3 20:22:22 10° N 20:27:48 57° W 20:33:18 10° SSW
PSLV R/B 3.7 20:24:24 10° NNE 20:28:48 82° ESE 20:33:15 10° S
OTV 4 0.9 20:27:10 17° W 20:29:10 41° NNW 20:32:03 10° ENE
Okean 1-7 3.4 20:26:40 15° NNW 20:30:11 51° W 20:34:31 10° S
Cosmos 1943 3.1 20:24:53 10° SSW 20:30:33 71° WNW 20:36:08 10° NNE
Cosmos 1782 3.4 20:27:05 10° N 20:31:02 59° E 20:35:01 10° SSE
NOSS 3-1 (C) 3.6 20:25:19 10° SSW 20:31:46 78° SE 20:37:33 10° NE
CZ-4B DEB 4.3 20:29:46 10° N 20:35:08 55° W 20:40:34 10° SSW
CZ-4B R/B 3.4 20:33:55 10° N 20:37:53 45° W 20:42:08 10° SSW
Cosmos 1606 3.7 20:34:55 10° NNE 20:38:36 47° E 20:42:20 10° SSE
CZ-4B R/B 3.4 20:33:44 10° N 20:38:50 48° W 20:44:02 10° SSW
Cosmos 990 Rocket 4.3 20:39:30 11° NW 20:44:24 55° WSW 20:49:39 10° S
USA 161 1.0 20:42:04 10° SSE 20:44:28 74° ENE 20:46:43 10° N
ERS-2 3.9 20:45:06 12° NW 20:46:51 16° W 20:49:11 10° SW
Cosmos 1844 Rocket 4.4 20:42:11 10° NNE 20:47:02 30° ENE 20:51:53 10° SE
Cosmos 1709 Rocket 4.4 20:44:19 10° SSW 20:50:07 43° W 20:55:51 10° NNW
ISS -2.5 20:48:38 10° WNW 20:51:48 45° SSW 20:55:02 10° SE
SL-16 R/B 2.6 20:47:13 10° SSE 20:53:35 80° WSW 20:59:49 10° NNW
Landsat 4 4.0 20:52:30 10° S 20:56:21 56° WSW 21:00:08 10° NNW
BREEZE-M DEB (TANK) 2.5 20:54:00 10° WSW 20:56:27 46° NNW 21:02:19 10° NE
Meteor 2-6 Rocket 4.2 20:52:33 10° N 20:58:05 88° E 21:03:35 10° S
Cosmos 1461 3.2 20:54:46 10° SW 20:59:27 61° WNW 21:04:02 10° NNE
ATLAS 3B CENTAUR R/B 4.2 20:58:58 10° NNW 21:04:47 32° NE 21:18:23 10° E
COBE Rocket 4.5 21:00:17 10° NNW 21:05:00 39° W 21:09:39 10° SSW
